Location: Lake Runnemede Observatory
(43.4843°N, 72.3851°W)
Time: 01:35:52
(UTC-05:00)

Amateur Radio Satellites - All Passes

Search period start: 21 November 2017 01:05
Search period end: 22 November 2017 01:05
Location: Lake Runnemede Observatory, 43.4843°N, 72.3851°W

Satellite Date Start Highest point End Downlink Frequencies (MHz)
Time Altitude Azimuth
DUCHIFAT 1 21 Nov 01:22:14 01:24:45 16° 297° (WNW) 01:27:16 145.980
RS-15 21 Nov 01:22:41 01:33:40 38° 31° (NNE) 01:44:06 29.354- 29.394
ISS 21 Nov 01:26:42 01:29:32 26° 16° (NNE) 01:32:22 437.550
50 SAT 21 Nov 01:30:19 01:32:25 16° 266° (W) 01:34:32 437.505
EO-79 21 Nov 01:30:23 01:31:26 11° 300° (WNW) 01:32:30 145.935-145.965
BEESAT 3 21 Nov 01:33:37 01:36:05 16° 111° (ESE) 01:38:34 437.485
NANOSAT C BR1 21 Nov 01:33:43 01:34:56 11° 300° (WNW) 01:36:10 145.865
BEESAT 21 Nov 01:38:45 01:43:02 34° 68° (ENE) 01:47:18 436.000
DX 1 21 Nov 01:46:51 01:50:02 20° 266° (W) 01:53:16 434.975-435.025
ITUPSAT 1 21 Nov 01:47:59 01:52:27 40° 69° (ENE) 01:56:55 437.325
Oscar 19 21 Nov 01:49:19 01:54:28 70° 287° (WNW) 01:59:36 437.125/150
M-CUBED/EXP-1 PRIME 21 Nov 01:55:33 01:59:11 23° 99° (E) 02:02:53 437.505
PCSat 21 Nov 02:00:10 02:04:06 20° 319° (NW) 02:08:03 145.827
MOZHAYETS 4 21 Nov 02:03:37 02:08:09 72° 75° (ENE) 02:12:43
Gurwin Techsat 1B 21 Nov 02:11:48 02:17:04 63° 288° (WNW) 02:22:18 435.225
AO-7 21 Nov 02:13:56 02:20:34 26° 93° (E) 02:27:11 .
CUBESAT XI-V 21 Nov 02:15:19 02:18:55 23° 65° (ENE) 02:22:33 437.345
BUGSAT 1 21 Nov 02:16:15 02:18:38 15° 297° (WNW) 02:21:00 437.445
nSIGHT-1 21 Nov 02:20:01 02:23:11 60° 29° (NNE) 02:26:21 .
UKube-1 21 Nov 02:32:09 02:33:08 11° 271° (W) 02:34:07 .
BEESAT 2 21 Nov 02:43:16 02:46:35 25° 114° (ESE) 02:49:56 435.950
ISS 21 Nov 03:03:00 03:06:16 71° 215° (SW) 03:09:29 437.550
BEESAT 3 21 Nov 03:09:20 03:13:13 50° 308° (NW) 03:17:09 437.485
BEESAT 21 Nov 03:16:44 03:20:48 28° 264° (W) 03:24:54 436.000
ITUPSAT 1 21 Nov 03:26:36 03:30:24 23° 266° (W) 03:34:12 437.325
AO-85 21 Nov 03:28:09 03:31:27 27° 114° (ESE) 03:34:51 145.980
M-CUBED/EXP-1 PRIME 21 Nov 03:29:23 03:33:37 41° 295° (WNW) 03:37:58 437.505
Oscar 19 21 Nov 03:32:16 03:32:50 10° 305° (NW) 03:33:25 437.125/150
RS-15 21 Nov 03:35:44 03:47:41 86° 239° (WSW) 03:58:56 29.354- 29.394
ITAMSAT 1 21 Nov 03:41:02 03:46:17 79° 104° (ESE) 03:51:28 435.822/435.867
MOZHAYETS 4 21 Nov 03:44:07 03:45:48 12° 271° (W) 03:47:29
CUBESAT XI-V 21 Nov 03:51:47 03:56:03 38° 263° (W) 04:00:23 437.345
nSIGHT-1 21 Nov 03:56:53 03:59:08 18° 226° (SW) 04:01:21 .
KKS-1 21 Nov 03:57:29 04:01:55 62° 73° (ENE) 04:06:21 437.445
AO-7 21 Nov 04:05:42 04:14:02 74° 292° (WNW) 04:22:21 .
BEESAT 2 21 Nov 04:20:28 04:24:10 34° 312° (NW) 04:27:53 435.950
STARS 21 Nov 04:22:34 04:26:48 46° 71° (ENE) 04:31:04 437.465
DOVE 4 21 Nov 04:25:19 04:30:16 42° 97° (E) 04:34:57 437.250
YUBILEINY 21 Nov 04:26:53 04:34:40 38° 85° (E) 04:42:30 435.215
STRAND 1 21 Nov 04:44:07 04:45:43 11° 56° (NE) 04:47:18 437.568
XW-2B 21 Nov 04:50:06 04:51:24 11° 90° (E) 04:52:41 145.730 - 145.750
SO-50 21 Nov 05:00:27 05:04:12 24° 42° (NE) 05:08:00 436.795
NUDT-PHONESAT 21 Nov 05:05:48 05:07:15 12° 91° (E) 05:08:40 437.300
AO-85 21 Nov 05:08:15 05:11:44 30° 314° (NW) 05:15:23 145.980
CUTE-I 21 Nov 05:12:14 05:16:18 21° 92° (E) 05:20:18 437.470
XW-2C 21 Nov 05:14:11 05:17:14 23° 95° (E) 05:20:17 145.795 - 145.815
LilacSat-2 21 Nov 05:15:47 05:19:02 25° 95° (E) 05:22:15 437.200
ITAMSAT 1 21 Nov 05:22:06 05:25:04 16° 302° (WNW) 05:28:03 435.822/435.867
XW-2F 21 Nov 05:24:52 05:28:10 28° 96° (E) 05:31:28 145.980 - 146.000
KKS-1 21 Nov 05:36:39 05:38:52 13° 270° (W) 05:41:05 437.445
RS-15 21 Nov 05:50:06 05:58:15 23° 261° (W) 06:06:09 29.354- 29.394
FO-29 21 Nov 05:50:48 05:55:20 19° 53° (NE) 06:00:07 435.910
KAITUO 1B 21 Nov 05:52:48 05:56:27 47° 99° (E) 06:00:06 145.475/437.950
AO-7 21 Nov 06:00:05 06:05:27 19° 313° (NW) 06:10:49 .
STARS 21 Nov 06:00:22 06:03:22 18° 268° (W) 06:06:22 437.465
DOVE 4 21 Nov 06:03:23 06:07:40 26° 295° (WNW) 06:11:47 437.250
XW-2D 21 Nov 06:07:15 06:11:04 78° 283° (WNW) 06:14:53 145.860 - 145.880
CUBEBUG 2 21 Nov 06:09:11 06:11:12 13° 90° (E) 06:13:14 437.445
HO-68 21 Nov 06:13:05 06:19:32 34° 96° (E) 06:25:55 435.675
STRAND 1 21 Nov 06:18:52 06:24:01 78° 74° (ENE) 06:29:11 437.568
XW-2B 21 Nov 06:22:10 06:25:53 53° 286° (WNW) 06:29:35 145.730 - 145.750
YUBILEINY 21 Nov 06:22:45 06:31:11 51° 286° (WNW) 06:39:44 435.215
NUDT-PHONESAT 21 Nov 06:37:46 06:41:21 48° 286° (WNW) 06:44:56 437.300
SO-50 21 Nov 06:40:25 06:44:57 54° 240° (WSW) 06:49:32 436.795
XW-2C 21 Nov 06:48:09 06:51:22 26° 291° (WNW) 06:54:35 145.795 - 145.815
CUTE 1.7 + AOD 2 21 Nov 06:48:43 06:52:59 66° 101° (E) 06:57:14 437.475
LilacSat-2 21 Nov 06:50:05 06:53:11 24° 292° (WNW) 06:56:19 437.200
CUTE-I 21 Nov 06:51:25 06:56:37 53° 290° (WNW) 07:01:48 437.470
ZACube-1 21 Nov 06:56:50 06:58:49 13° 90° (E) 07:00:48 437.345
XW-2F 21 Nov 06:59:12 07:02:08 22° 292° (WNW) 07:05:04 145.980 - 146.000
UWE-3 21 Nov 07:04:56 07:08:37 30° 96° (E) 07:12:17 435.000/436.395/437.385
PCSat 21 Nov 07:19:03 07:22:34 17° 38° (NE) 07:26:05 145.827
SEEDS 21 Nov 07:19:25 07:23:40 87° 92° (E) 07:27:56 437.485
AAUSAT CUBESAT 2 21 Nov 07:26:36 07:30:38 45° 99° (E) 07:34:38 437.432
KAITUO 1B 21 Nov 07:28:06 07:30:02 14° 296° (WNW) 07:31:58 145.475/437.950
FO-29 21 Nov 07:32:29 07:39:07 84° 74° (ENE) 07:46:38 435.910
CUBEBUG 2 21 Nov 07:44:06 07:48:11 53° 287° (WNW) 07:52:12 437.445
AO-73 21 Nov 07:46:22 07:50:17 40° 98° (E) 07:54:13 145.935
UNISAT 6 21 Nov 07:46:45 07:50:12 22° 66° (ENE) 07:53:36 437.425
TIGRISAT 21 Nov 07:51:05 07:54:34 22° 66° (ENE) 07:57:59 435.000
HO-68 21 Nov 08:00:34 08:07:25 49° 295° (WNW) 08:14:14 435.675
XW-2A 21 Nov 08:01:08 08:04:24 51° 286° (WNW) 08:07:41 145.665 - 145.685
STRAND 1 21 Nov 08:01:20 08:03:46 13° 271° (W) 08:06:13 437.568
Oscar 11 21 Nov 08:02:48 08:06:56 42° 98° (E) 08:11:03 .
CUTE 1.7 + AOD 2 21 Nov 08:26:17 08:28:16 13° 298° (WNW) 08:30:15 437.475
YUBILEINY 21 Nov 08:29:53 08:30:37 10° 311° (NW) 08:31:21 435.215
ZACube-1 21 Nov 08:31:23 08:35:26 54° 286° (WNW) 08:39:30 437.345
UWE-3 21 Nov 08:41:39 08:44:57 23° 293° (WNW) 08:48:13 435.000/436.395/437.385
PRISM 21 Nov 08:46:22 08:49:58 30° 68° (ENE) 08:53:37 437.425
PCSat 21 Nov 09:01:22 09:06:50 82° 59° (ENE) 09:12:15 145.827
AAUSAT CUBESAT 2 21 Nov 09:02:57 09:05:43 17° 295° (WNW) 09:08:29 437.432
EO-88 21 Nov 09:03:10 09:05:46 18° 93° (E) 09:08:21 145.990 - 145.960
Max Valier Satellite 21 Nov 09:04:21 09:07:30 27° 96° (E) 09:10:40 145.860
AIST 2D 21 Nov 09:10:48 09:12:34 13° 65° (ENE) 09:14:20 435.315
FO-29 21 Nov 09:20:40 09:25:10 19° 275° (W) 09:29:59 435.910
UNISAT 6 21 Nov 09:22:20 09:26:38 40° 262° (W) 09:30:54 437.425
AO-73 21 Nov 09:23:23 09:26:14 18° 295° (WNW) 09:29:05 145.935
TIGRISAT 21 Nov 09:26:42 09:31:00 40° 262° (W) 09:35:14 435.000
POLYITAN 1 21 Nov 09:28:54 09:29:29 10° 60° (ENE) 09:30:06 437.675
DELFI C3 21 Nov 09:32:22 09:36:24 89° 100° (E) 09:40:23 145.870
FALCONSAT 3 21 Nov 09:32:36 09:34:38 14° 162° (SSE) 09:36:40 435.103
Oscar 11 21 Nov 09:39:41 09:42:46 19° 295° (WNW) 09:45:51 .
BEESAT 3 21 Nov 09:48:05 09:50:45 17° 40° (NE) 09:53:24 437.485
QB50P2 21 Nov 09:49:31 09:52:32 19° 65° (ENE) 09:55:32 145.880/145.840
HO-68 21 Nov 09:52:09 09:53:28 11° 315° (NW) 09:54:46 435.675
PRISM 21 Nov 10:21:53 10:25:14 24° 265° (W) 10:28:38 437.425
EO-88 21 Nov 10:36:14 10:39:27 30° 290° (WNW) 10:42:39 145.990 - 145.960
DUCHIFAT 1 21 Nov 10:37:52 10:41:51 41° 71° (ENE) 10:45:49 145.980
Max Valier Satellite 21 Nov 10:38:24 10:41:11 21° 292° (WNW) 10:43:57 145.860
AIST 2D 21 Nov 10:42:09 10:45:23 38° 262° (W) 10:48:40 435.315
EO-79 21 Nov 10:45:02 10:49:14 66° 75° (ENE) 10:53:27 145.935-145.965
PCSat 21 Nov 10:46:40 10:49:29 14° 257° (WSW) 10:52:17 145.827
NANOSAT C BR1 21 Nov 10:48:15 10:52:26 63° 74° (ENE) 10:56:37 145.865
ESTCUBE 1 21 Nov 10:51:13 10:55:24 35° 97° (E) 10:59:33 437.505/2401.250
BEESAT 2 21 Nov 10:59:12 11:02:35 25° 45° (NE) 11:05:55 435.950
LO-87 21 Nov 11:00:02 11:03:33 62° 100° (E) 11:07:03 145.935 - 145.965
POLYITAN 1 21 Nov 11:00:21 11:04:36 85° 254° (WSW) 11:08:51 437.675
FALCONSAT 3 21 Nov 11:10:05 11:13:04 23° 177° (S) 11:16:02 435.103
QB50P2 21 Nov 11:23:59 11:28:01 41° 262° (W) 11:32:03 145.880/145.840
BEESAT 3 21 Nov 11:24:45 11:28:38 60° 241° (WSW) 11:32:28 437.485
Oscar 19 21 Nov 11:29:16 11:33:25 26° 64° (ENE) 11:37:36 437.125/150
AO-7 21 Nov 11:30:00 11:31:04 10° 36° (NE) 11:32:08 .
BUGSAT 1 21 Nov 11:30:04 11:33:58 39° 71° (ENE) 11:37:51 437.445
Gurwin Techsat 1B 21 Nov 11:54:57 11:59:38 32° 66° (ENE) 12:04:19 435.225
AO-85 21 Nov 11:56:37 12:01:01 41° 49° (NE) 12:05:42 145.980
SPROUT 21 Nov 12:07:33 12:11:45 56° 100° (E) 12:15:53 437.525
DUCHIFAT 1 21 Nov 12:14:49 12:17:41 18° 267° (W) 12:20:33 145.980
EO-79 21 Nov 12:24:00 12:25:25 11° 271° (W) 12:26:50 145.935-145.965
NANOSAT C BR1 21 Nov 12:26:56 12:28:32 12° 270° (W) 12:30:08 145.865
ESTCUBE 1 21 Nov 12:28:20 12:32:01 25° 294° (WNW) 12:35:41 437.505/2401.250
BEESAT 2 21 Nov 12:36:41 12:40:24 36° 243° (WSW) 12:44:03 435.950
UKube-1 21 Nov 12:40:41 12:41:40 11° 89° (E) 12:42:39 .
O/OREOS (USA 219) 21 Nov 12:41:46 12:46:03 40° 107° (ESE) 12:50:22 437.305
M-CUBED/EXP-1 PRIME 21 Nov 12:42:25 12:45:30 27° 62° (ENE) 12:48:48 437.505
50 SAT 21 Nov 12:45:43 12:48:02 18° 95° (E) 12:50:19 437.505
VELOX 1 21 Nov 12:47:20 12:51:49 88° 277° (W) 12:56:15 145.980
FALCONSAT 3 21 Nov 12:48:55 12:51:35 19° 192° (SSW) 12:54:13 435.103
BUGSAT 1 21 Nov 13:06:28 13:09:27 19° 267° (W) 13:12:25 437.445
Oscar 19 21 Nov 13:07:41 13:12:30 42° 261° (W) 13:17:22 437.125/150
AO-7 21 Nov 13:14:02 13:21:34 41° 59° (ENE) 13:29:09 .
ITAMSAT 1 21 Nov 13:22:44 13:26:23 20° 61° (ENE) 13:30:02 435.822/435.867
DX 1 21 Nov 13:32:12 13:36:34 64° 102° (ESE) 13:40:54 434.975-435.025
Gurwin Techsat 1B 21 Nov 13:34:40 13:39:29 35° 263° (W) 13:44:21 435.225
AO-85 21 Nov 13:37:14 13:41:20 29° 245° (WSW) 13:45:39 145.980
NO-84 21 Nov 13:39:18 13:41:01 13° 123° (ESE) 13:42:49 435.350 FM
SPROUT 21 Nov 13:44:48 13:47:10 15° 297° (WNW) 13:49:32 437.525
MOZHAYETS 4 21 Nov 13:58:38 14:01:18 15° 91° (E) 14:03:57
UKube-1 21 Nov 14:13:50 14:18:10 73° 286° (WNW) 14:22:28 .
M-CUBED/EXP-1 PRIME 21 Nov 14:17:06 14:19:55 22° 261° (W) 14:22:55 437.505
50 SAT 21 Nov 14:17:30 14:20:05 23° 291° (WNW) 14:22:40 437.505
O/OREOS (USA 219) 21 Nov 14:21:53 14:25:36 24° 305° (NW) 14:29:21 437.305
VELOX 1 21 Nov 14:26:50 14:27:30 10° 302° (WNW) 14:28:11 145.980
YUBILEINY 21 Nov 14:35:31 14:41:41 20° 60° (ENE) 14:47:48 435.215
ITAMSAT 1 21 Nov 15:00:11 15:05:21 61° 258° (WSW) 15:10:33 435.822/435.867
AO-7 21 Nov 15:06:13 15:14:10 50° 259° (WSW) 15:22:12 .
DX 1 21 Nov 15:09:55 15:12:13 14° 299° (WNW) 15:14:31 434.975-435.025
NO-84 21 Nov 15:14:01 15:17:43 82° 318° (NW) 15:21:45 435.350 FM
BEESAT 21 Nov 15:14:33 15:19:18 66° 102° (ESE) 15:24:01 436.000
ITUPSAT 1 21 Nov 15:24:26 15:29:13 81° 103° (ESE) 15:33:59 437.325
DOVE 4 21 Nov 15:30:56 15:35:45 46° 71° (ENE) 15:40:47 437.250
MOZHAYETS 4 21 Nov 15:34:19 15:38:48 56° 287° (WNW) 15:43:15
CUBESAT XI-V 21 Nov 15:46:31 15:51:03 46° 99° (E) 15:55:34 437.345
KKS-1 21 Nov 15:49:59 15:50:53 10° 89° (E) 15:51:46 437.445
RS-15 21 Nov 15:57:16 16:00:46 12° 92° (E) 16:04:16 29.354- 29.394
XW-2C 21 Nov 15:57:32 15:59:28 14° 64° (ENE) 16:01:25 145.795 - 145.815
LilacSat-2 21 Nov 15:59:32 16:01:49 16° 65° (ENE) 16:04:08 437.200
XW-2F 21 Nov 16:07:25 16:09:48 16° 66° (ENE) 16:12:10 145.980 - 146.000
YUBILEINY 21 Nov 16:30:57 16:39:52 87° 82° (E) 16:48:43 435.215
KAITUO 1B 21 Nov 16:33:53 16:36:57 25° 69° (ENE) 16:40:01 145.475/437.950
CUTE-I 21 Nov 16:34:47 16:39:44 39° 68° (ENE) 16:44:43 437.470
HO-68 21 Nov 16:43:22 16:49:24 30° 59° (ENE) 16:55:27 435.675
XW-2D 21 Nov 16:49:05 16:52:44 56° 74° (ENE) 16:56:25 145.860 - 145.880
NO-84 21 Nov 16:52:28 16:55:37 22° 342° (NNW) 16:58:55 435.350 FM
BEESAT 21 Nov 16:53:45 16:56:32 16° 300° (WNW) 16:59:18 436.000
XW-2B 21 Nov 17:03:51 17:07:34 82° 78° (ENE) 17:11:20 145.730 - 145.750
ITUPSAT 1 21 Nov 17:04:13 17:06:23 13° 301° (WNW) 17:08:32 437.325
CUBEBUG 2 21 Nov 17:08:08 17:10:48 16° 64° (ENE) 17:13:26 437.445
DOVE 4 21 Nov 17:09:39 17:13:39 23° 269° (W) 17:17:46 437.250
NUDT-PHONESAT 21 Nov 17:17:09 17:20:48 83° 76° (ENE) 17:24:28 437.300
KKS-1 21 Nov 17:23:29 17:27:58 77° 286° (WNW) 17:32:24 437.445
CUBESAT XI-V 21 Nov 17:24:39 17:28:05 21° 296° (WNW) 17:31:31 437.345
XW-2C 21 Nov 17:29:41 17:33:15 45° 261° (W) 17:36:53 145.795 - 145.815
LilacSat-2 21 Nov 17:32:15 17:35:47 39° 262° (W) 17:39:20 437.200
XW-2F 21 Nov 17:40:10 17:43:36 36° 262° (W) 17:47:05 145.980 - 146.000
CUTE 1.7 + AOD 2 21 Nov 17:42:05 17:46:09 51° 73° (ENE) 17:50:16 437.475
STARS 21 Nov 17:46:33 17:50:57 76° 102° (ESE) 17:55:20 437.465
ZACube-1 21 Nov 17:54:05 17:56:10 13° 63° (ENE) 17:58:14 437.345
RS-15 21 Nov 17:58:32 18:10:23 58° 113° (ESE) 18:22:13 29.354- 29.394
UWE-3 21 Nov 18:02:42 18:06:34 30° 69° (ENE) 18:10:21 435.000/436.395/437.385
KAITUO 1B 21 Nov 18:07:58 18:10:52 22° 266° (W) 18:13:49 145.475/437.950
SEEDS 21 Nov 18:11:40 18:15:46 67° 76° (ENE) 18:19:57 437.485
CUTE-I 21 Nov 18:15:15 18:19:51 29° 265° (W) 18:24:30 437.470
AAUSAT CUBESAT 2 21 Nov 18:17:33 18:21:15 33° 70° (ENE) 18:25:00 437.432
XW-2D 21 Nov 18:26:39 18:27:15 10° 271° (W) 18:27:52 145.860 - 145.880
STRAND 1 21 Nov 18:28:49 18:32:56 24° 94° (E) 18:37:00 437.568
YUBILEINY 21 Nov 18:29:34 18:35:27 20° 283° (WNW) 18:41:20 435.215
HO-68 21 Nov 18:29:37 18:36:42 59° 258° (WSW) 18:43:49 435.675
NO-84 21 Nov 18:31:29 18:34:10 17° 3° (N) 18:36:55 435.350 FM
XW-2A 21 Nov 18:32:44 18:35:58 54° 75° (ENE) 18:39:14 145.665 - 145.685
CUBEBUG 2 21 Nov 18:42:26 18:46:59 59° 260° (W) 18:51:23 437.445
AO-73 21 Nov 18:42:40 18:46:35 36° 71° (ENE) 18:50:28 145.935
FO-29 21 Nov 18:43:20 18:47:08 14° 82° (E) 18:50:51 435.910
Oscar 11 21 Nov 18:58:30 19:02:26 37° 71° (ENE) 19:06:24 .
CUTE 1.7 + AOD 2 21 Nov 19:20:01 19:22:18 14° 270° (W) 19:24:35 437.475
STARS 21 Nov 19:24:56 19:26:40 12° 300° (WNW) 19:28:24 437.465
ZACube-1 21 Nov 19:27:40 19:31:58 63° 260° (W) 19:36:11 437.345
UWE-3 21 Nov 19:39:15 19:42:59 26° 265° (W) 19:46:40 435.000/436.395/437.385
EO-88 21 Nov 19:43:58 19:44:27 10° 63° (ENE) 19:44:55 145.990 - 145.960
ISS 21 Nov 19:44:20 19:46:40 18° 134° (SE) 19:49:00 437.550
Max Valier Satellite 21 Nov 19:44:59 19:47:10 15° 66° (ENE) 19:49:20 145.860
SEEDS 21 Nov 19:50:52 19:51:55 11° 272° (W) 19:52:57 437.485
AAUSAT CUBESAT 2 21 Nov 19:53:37 19:56:46 21° 267° (W) 19:59:56 437.432
STRAND 1 21 Nov 20:07:26 20:12:17 43° 291° (WNW) 20:17:04 437.568
NO-84 21 Nov 20:08:55 20:12:36 28° 24° (NNE) 20:16:20 435.350 FM
RS-15 21 Nov 20:11:13 20:23:11 53° 317° (NW) 20:35:02 29.354- 29.394
DELFI C3 21 Nov 20:18:07 20:22:00 56° 74° (ENE) 20:25:55 145.870
AO-73 21 Nov 20:19:43 20:22:55 20° 267° (W) 20:26:06 145.935
FO-29 21 Nov 20:25:34 20:33:29 73° 102° (ESE) 20:40:53 435.910
nSIGHT-1 21 Nov 20:33:46 20:36:56 66° 145° (SE) 20:40:08 .
Oscar 11 21 Nov 20:35:28 20:38:41 21° 267° (W) 20:41:56 .
SO-50 21 Nov 20:55:44 20:59:47 35° 116° (ESE) 21:03:54 436.795
UNISAT 6 21 Nov 21:12:37 21:16:34 35° 97° (E) 21:20:29 437.425
O/OREOS (USA 219) 21 Nov 21:12:47 21:14:51 13° 48° (NE) 21:16:55 437.305
EO-88 21 Nov 21:13:59 21:17:34 60° 260° (W) 21:21:10 145.990 - 145.960
TIGRISAT 21 Nov 21:16:48 21:20:45 36° 97° (E) 21:24:39 435.000
Max Valier Satellite 21 Nov 21:17:15 21:20:40 37° 262° (W) 21:24:06 145.860
ISS 21 Nov 21:19:37 21:22:51 61° 331° (NNW) 21:26:07 437.550
LO-87 21 Nov 21:36:52 21:40:01 29° 70° (ENE) 21:43:11 145.935 - 145.965
NO-84 21 Nov 21:46:03 21:50:18 71° 223° (SW) 21:54:32 435.350 FM
ESTCUBE 1 21 Nov 21:51:39 21:55:45 36° 69° (ENE) 21:59:53 437.505/2401.250
DELFI C3 21 Nov 21:55:35 21:57:05 12° 270° (W) 21:58:35 145.870
PRISM 21 Nov 22:00:55 22:04:52 40° 99° (E) 22:08:46 437.425
AIST 2D 21 Nov 22:06:41 22:08:29 13° 91° (E) 22:10:17 435.315
nSIGHT-1 21 Nov 22:10:35 22:13:24 27° 343° (NNW) 22:16:11 .
FO-29 21 Nov 22:11:25 22:17:44 28° 302° (WNW) 22:23:49 435.910
VELOX 1 21 Nov 22:12:41 22:13:51 11° 59° (ENE) 22:15:00 145.980
RS-15 21 Nov 22:29:23 22:39:24 27° 349° (N) 22:49:10 29.354- 29.394
SO-50 21 Nov 22:36:19 22:40:17 30° 315° (NW) 22:44:18 436.795
POLYITAN 1 21 Nov 22:45:20 22:47:34 14° 91° (E) 22:49:46 437.675
UNISAT 6 21 Nov 22:49:49 22:53:04 21° 294° (WNW) 22:56:17 437.425
O/OREOS (USA 219) 21 Nov 22:50:22 22:54:57 86° 242° (WSW) 22:59:27 437.305
TIGRISAT 21 Nov 22:54:00 22:57:13 21° 294° (WNW) 23:00:25 435.000
ISS 21 Nov 22:57:12 22:59:48 21° 350° (N) 23:02:24 437.550
SPROUT 21 Nov 23:01:28 23:05:35 48° 72° (ENE) 23:09:43 437.525
QB50P2 21 Nov 23:07:36 23:11:12 27° 96° (E) 23:14:48 145.880/145.840
LO-87 21 Nov 23:10:53 23:13:27 18° 266° (W) 23:16:01 145.935 - 145.965
NO-84 21 Nov 23:26:02 23:26:59 11° 239° (WSW) 23:27:54 435.350 FM
ESTCUBE 1 21 Nov 23:29:07 23:32:38 22° 266° (W) 23:36:11 437.505/2401.250
UKube-1 21 Nov 23:36:07 23:37:46 12° 60° (ENE) 23:39:26 .
PRISM 21 Nov 23:36:53 23:39:51 19° 295° (WNW) 23:42:46 437.425
AIST 2D 21 Nov 23:38:31 23:41:49 37° 287° (WNW) 23:45:06 435.315
PCSat 21 Nov 23:43:52 23:49:10 60° 116° (ESE) 23:54:31 145.827
VELOX 1 21 Nov 23:45:08 23:49:34 87° 251° (WSW) 23:54:04 145.980
nSIGHT-1 21 Nov 23:47:59 23:50:21 19° 3° (N) 23:52:44 .
DUCHIFAT 1 21 Nov 23:55:42 23:59:51 65° 101° (E) 00:03:58 145.980
EO-79 22 Nov 00:03:56 00:08:08 78° 285° (WNW) 00:12:18 145.935-145.965
NANOSAT C BR1 22 Nov 00:06:41 00:10:53 82° 283° (WNW) 00:15:03 145.865
Gurwin Techsat 1B 22 Nov 00:12:35 00:13:34 10° 87° (E) 00:14:32 435.225
POLYITAN 1 22 Nov 00:19:34 00:23:38 52° 287° (WNW) 00:27:42 437.675
DX 1 22 Nov 00:28:22 00:32:41 64° 73° (ENE) 00:37:03 434.975-435.025
ISS 22 Nov 00:34:26 00:37:04 22° 10° (N) 00:39:41 437.550
SPROUT 22 Nov 00:39:06 00:41:44 16° 269° (W) 00:44:21 437.525
QB50P2 22 Nov 00:43:23 00:46:55 27° 292° (WNW) 00:50:26 145.880/145.840
50 SAT 22 Nov 00:44:32 00:47:45 66° 257° (WSW) 00:51:00 437.505
BUGSAT 1 22 Nov 00:45:26 00:49:25 55° 100° (E) 00:53:20 437.445
BEESAT 22 Nov 00:48:00 00:49:31 11° 58° (ENE) 00:51:02 436.000
ITUPSAT 1 22 Nov 00:57:12 00:59:37 14° 59° (ENE) 01:02:02 437.325
